This is the latest recevied weather packets stored in our database for station/object YC0TBU-3. If no packets are shown the sender has not sent any weather packets the latest 1 day(s).
| Time | Temp. | Humidity | Pressure | Rain* | Wind** | Luminosity | Snow |
|---|---|---|---|---|---|---|---|
| 1778048707 | 25.56° C | 55% | 1011.3 hPa | - | - | - | - |
| 1778047972 | 25.56° C | 54% | 1011.4 hPa | - | - | - | - |
| 1778047272 | 25.56° C | 55% | 1009.5 hPa | - | - | - | - |
| 1778045846 | 26.11° C | 54% | 1009.4 hPa | - | - | - | - |
| 1778042299 | 25° C | 55% | 1011.5 hPa | - | - | - | - |
| 1778041600 | 25.56° C | 55% | 1013.1 hPa | - | - | - | - |
| 1778040873 | 25° C | 55% | 1012.8 hPa | - | - | - | - |
| 1778040169 | 25° C | 55% | 1011.3 hPa | - | - | - | - |
| 1778035938 | 24.44° C | 56% | 1011 hPa | - | - | - | - |
| 1778034528 | 24.44° C | 56% | 1012.2 hPa | - | - | - | - |
| 1778033823 | 24.44° C | 56% | 1013.6 hPa | - | - | - | - |
| 1778033118 | 24.44° C | 56% | 1013.2 hPa | - | - | - | - |
| 1778032413 | 24.44° C | 56% | 1013.6 hPa | - | - | - | - |
| 1778031708 | 24.44° C | 56% | 1011.5 hPa | - | - | - | - |
| 1778028892 | 23.89° C | 58% | 1014.6 hPa | - | - | - | - |
| 1778028183 | 23.33° C | 59% | 1013.5 hPa | - | - | - | - |
| 1778027478 | 23.89° C | 58% | 1011.7 hPa | - | - | - | - |
| 1778026774 | 23.33° C | 58% | 1013.3 hPa | - | - | - | - |
| 1778026068 | 23.33° C | 59% | 1012.4 hPa | - | - | - | - |
| 1778018970 | 23.89° C | 58% | 1012.1 hPa | - | - | - | - |
| 1778008363 | 24.44° C | 57% | 1011.8 hPa | - | - | - | - |
* Rain since midnight (hover to see other rain measurements)
** Current wind speed in m/s (hover to see current wind gust speed)